Theta_e
302 302 302 302 303 303 303 302 300 298 298 298 298 299 300 301 302 304 304 305 305 305 302 302 303 304 307 307 305 301 299 299 300 301 304 308 310 310 311 311 311 311 311 311 311 311 311
302 302 302 302 302 302 302 300 299 298 298 298 298 299 300 301 302 304 304 304 305 303 304 301 301 303 305 303 302 300 299 300 301 302 303 305 308 310 310 310 311 311 310 311 310 310 311
302 302 302 302 302 302 302 298 298 298 298 298 298 299 300 300 302 304 305 302 303 306 307 308 306 304 302 301 301 299 299 300 302 303 305 305 306 306 310 310 310 310 310 310 311 311 311
302 302 302 301 301 302 302 298 297 298 299 299 299 299 300 299 302 302 304 305 300 301 304 306 305 305 301 298 299 299 299 300 302 302 305 306 305 306 306 308 309 309 310 311 311 310 310
301 302 301 301 301 301 301 298 296 297 299 299 298 299 299 299 301 302 301 302 305 302 300 302 304 303 300 299 299 298 298 300 302 302 304 306 307 308 308 308 308 308 309 310 310 310 310
301 301 301 301 301 301 301 299 295 296 298 298 298 299 299 299 299 301 303 302 301 303 302 301 300 303 300 299 299 298 298 299 301 302 305 305 308 308 308 308 309 310 310 310 310 310 309
300 300 300 300 300 300 300 300 295 295 298 298 298 298 298 299 298 301 305 307 308 304 301 300 300 299 299 299 299 298 298 300 301 302 303 306 305 303 302 303 304 305 306 307 308 308 309
300 300 300 300 299 299 299 298 294 294 297 298 298 298 298 300 298 301 305 308 305 303 300 299 300 300 298 298 298 299 297 300 300 300 300 303 305 300 302 305 306 306 307 308 308 308 309
299 299 299 299 299 299 298 296 295 295 298 299 298 298 298 300 299 301 303 301 301 304 304 300 299 299 299 299 298 298 298 299 298 299 299 299 299 300 302 306 306 304 305 308 309 309 310
298 299 299 299 298 295 294 293 294 295 299 298 298 298 298 298 301 300 302 301 304 306 306 299 299 299 299 299 298 297 297 298 298 298 298 297 297 299 301 303 300 303 305 306 306 308 311
298 298 298 298 298 294 293 293 294 295 298 297 298 297 298 297 300 300 299 302 306 308 311 299 298 298 299 298 297 298 297 298 297 297 298 297 296 297 300 299 299 303 303 304 306 308 310
298 298 298 298 296 293 293 293 294 295 298 297 297 297 298 299 300 297 302 305 305 312 305 299 298 298 299 298 297 298 298 298 297 297 298 297 297 301 299 298 299 303 304 306 308 309 312
297 297 298 298 296 293 293 293 294 294 296 297 296 296 297 297 298 300 305 303 311 315 299 298 297 298 298 298 297 297 298 298 298 297 297 297 297 297 298 299 299 303 305 308 309 314 314
297 297 297 297 295 293 293 293 294 294 296 298 298 297 298 297 296 297 300 305 310 298 298 298 298 298 298 297 297 297 297 298 297 296 297 297 298 297 296 298 298 302 303 306 308 309 310
297 297 297 296 294 293 293 293 293 294 296 298 300 299 298 296 296 296 305 308 300 298 297 297 298 298 298 298 296 297 297 297 297 297 296 296 296 296 297 296 299 299 301 301 308 306 308
296 296 297 296 293 293 293 293 293 294 296 297 300 300 298 296 298 303 304 299 298 297 297 297 297 297 298 297 297 297 297 296 297 296 295 294 294 295 296 297 300 298 298 302 303 308 311
296 296 296 296 293 293 293 293 293 293 296 297 300 301 297 296 300 303 305 299 298 297 296 297 296 297 297 296 296 296 296 296 296 295 293 294 294 295 296 298 297 299 298 299 301 304 308
295 296 296 296 293 293 293 293 293 293 295 297 300 304 296 298 302 301 301 299 296 296 296 295 297 297 296 295 295 296 296 296 295 293 293 293 293 295 296 296 298 297 297 298 303 300 303
295 296 296 296 294 293 293 293 293 293 294 298 299 299 296 300 307 303 298 297 297 296 297 296 297 295 295 295 294 295 294 294 292 292 293 295 295 295 294 297 297 296 297 298 299 304 306
295 295 295 295 294 293 293 293 293 293 294 296 300 306 299 298 298 298 298 297 296 295 296 295 296 294 294 294 294 294 294 293 292 292 293 294 294 293 295 295 295 296 298 297 297 300 302
295 294 295 295 294 293 293 293 293 293 293 297 299 299 296 301 298 298 297 296 295 294 294 295 295 294 293 294 293 293 292 291 291 291 293 292 293 292 292 293 294 298 297 297 296 296 296
294 294 295 295 294 293 293 293 293 293 294 295 300 300 297 297 296 297 296 296 294 294 294 294 293 293 293 293 292 292 292 291 292 290 288 289 289 289 291 293 295 294 293 295 295 295 294
294 294 295 295 293 293 293 293 293 293 294 296 294 294 297 295 296 297 296 295 294 294 294 293 293 292 291 290 292 292 292 292 292 290 288 287 287 288 291 293 294 293 294 294 293 293 293
293 294 294 295 293 293 293 293 293 293 294 294 293 295 299 297 296 295 294 294 293 293 293 292 292 291 291 291 292 291 290 291 289 288 287 286 286 287 291 293 292 290 291 294 293 291 291
292 293 294 294 293 293 293 293 294 292 292 294 294 295 297 297 295 294 294 293 293 292 292 292 291 291 290 291 290 288 288 287 287 287 286 287 289 290 293 294 292 289 289 292 293 290 290
292 293 293 294 294 293 293 294 294 293 292 294 293 294 294 298 295 293 294 293 293 292 291 291 290 290 290 289 289 288 286 285 285 286 287 287 288 290 292 291 289 290 289 290 291 292 290
292 292 293 294 294 294 294 294 294 293 293 293 293 293 294 296 294 294 293 293 291 291 292 290 290 290 289 289 289 288 287 286 285 285 286 287 288 288 289 292 290 289 289 290 289 291 290
292 292 293 294 294 294 294 294 294 294 292 293 293 292 293 293 293 292 292 292 290 291 291 290 290 290 289 289 289 287 287 286 286 286 286 287 288 288 289 288 289 289 289 289 289 289 289
292 292 293 294 294 294 294 294 294 293 292 292 293 291 290 292 293 291 291 291 290 290 291 290 289 289 289 289 288 288 287 287 286 286 287 287 288 289 288 287 288 288 288 288 288 288 288
Wind_Speed
23 24 24 25 25 26 26 27 27 26 23 22 25 25 23 22 25 17 14 12 12 14 19 19 11 8 6 9 8 23 31 29 17 18 9 10 12 11 15 9 12 20 20 18 18 17 17
24 25 26 26 26 26 27 27 29 27 23 22 24 25 23 21 24 14 14 14 15 20 16 19 18 17 13 14 11 23 30 26 18 16 11 10 8 10 14 17 17 13 13 17 16 17 18
24 24 25 25 26 27 27 28 28 26 23 21 26 27 23 23 23 11 8 19 12 3 2 4 7 9 26 14 12 25 29 16 14 15 10 9 7 9 6 13 13 15 20 19 20 21 19
23 24 25 26 26 27 28 28 29 27 25 22 25 26 22 23 21 15 7 8 22 19 10 6 9 8 7 14 16 30 32 16 16 17 7 8 6 10 13 13 18 20 20 19 13 5 12
24 25 26 27 28 29 29 29 30 27 24 21 23 24 21 21 16 10 17 11 9 7 20 16 8 3 6 14 27 30 32 16 18 16 9 1 5 4 5 11 14 15 18 17 15 9 13
25 26 27 28 29 30 30 30 29 27 22 21 23 24 22 14 16 17 10 19 29 14 6 2 26 2 15 15 14 30 36 8 10 17 5 5 2 5 7 9 12 15 17 17 18 6 8
25 26 27 28 29 30 30 30 30 27 21 21 23 23 21 8 21 17 7 3 4 6 24 14 11 11 13 16 6 29 37 7 13 12 8 5 6 9 13 13 16 19 21 25 22 20 22
25 26 27 28 29 31 32 33 33 30 22 18 23 23 20 3 19 15 8 5 4 5 12 12 9 12 18 8 13 27 37 11 11 15 13 2 8 13 12 12 12 16 21 25 21 15 12
25 26 27 28 30 31 33 34 34 31 22 17 22 23 21 5 6 13 16 8 2 4 2 9 10 16 20 8 15 24 30 10 13 15 14 9 8 11 12 8 16 19 19 19 19 18 22
25 26 28 29 30 34 36 37 35 30 20 18 21 23 20 6 3 7 6 8 2 3 4 11 11 10 17 1 6 21 28 8 12 10 12 5 9 10 13 10 19 17 14 19 20 16 15
25 27 28 29 31 35 37 38 37 29 17 17 18 24 17 19 4 4 8 2 4 3 3 11 7 8 15 14 10 20 25 7 12 11 12 11 9 11 15 12 21 16 20 24 24 20 19
26 27 28 30 33 36 37 39 36 30 14 16 18 23 22 11 10 8 1 3 2 3 5 4 6 13 16 17 10 15 14 16 4 5 7 13 4 3 9 19 18 15 24 24 22 16 13
26 27 28 31 33 37 38 39 37 32 15 7 17 20 22 13 10 7 6 3 2 6 5 9 10 12 10 18 10 18 14 18 15 11 18 12 3 10 10 21 13 22 19 8 7 7 13
26 27 28 31 33 37 38 39 38 34 20 7 5 15 18 24 15 1 3 2 11 3 7 8 14 8 9 18 10 18 14 11 14 16 14 12 4 12 17 11 10 14 12 6 8 9 13
25 27 28 31 34 37 38 39 38 36 21 10 2 5 17 35 16 2 3 8 4 5 7 10 11 5 6 10 10 12 11 9 8 15 15 12 9 24 11 15 6 10 14 17 7 18 13
25 26 28 31 34 37 38 40 39 36 20 9 2 2 22 29 15 3 6 6 4 6 8 7 8 4 11 14 11 14 8 5 10 13 14 12 18 12 9 13 5 12 10 8 6 6 7
23 25 27 30 33 36 37 40 38 36 18 7 4 2 25 20 11 7 6 6 5 6 8 7 7 7 8 13 15 9 5 4 13 15 21 19 10 10 21 12 14 9 9 6 7 7 5
23 25 27 29 32 35 36 38 39 37 20 10 4 4 26 13 6 5 6 3 3 8 6 5 2 5 9 16 9 5 8 9 19 22 24 8 8 13 20 13 3 9 10 10 7 6 7
22 24 25 27 31 33 36 37 37 36 20 5 3 4 19 11 5 6 9 6 5 9 8 7 6 6 11 11 8 6 8 14 18 20 12 9 5 12 12 6 4 17 17 16 15 13 5
21 22 24 26 29 31 34 36 36 31 16 6 2 3 5 10 7 8 6 9 7 7 4 5 2 8 14 13 5 10 14 16 20 19 17 14 13 15 12 16 15 14 11 18 16 5 8
18 20 22 24 27 29 32 35 37 27 22 5 5 3 2 4 7 8 9 4 10 7 5 7 2 12 14 8 13 6 21 21 16 17 10 10 13 16 17 18 14 15 13 16 18 15 10
17 18 19 22 24 26 29 32 34 32 19 12 3 2 3 5 3 6 4 9 10 10 3 7 9 12 11 9 13 21 21 17 6 12 16 16 12 17 18 14 15 16 19 15 18 17 14
14 16 16 18 20 22 25 27 31 34 18 9 7 4 1 2 6 3 5 7 7 9 3 7 9 10 9 15 18 17 16 9 2 12 16 15 14 13 15 11 5 11 18 15 15 18 18
12 14 14 16 16 18 21 22 25 28 23 11 4 2 1 3 4 5 5 4 7 7 7 6 7 10 12 18 15 6 5 5 7 15 16 17 15 9 11 10 10 9 17 11 7 19 19
11 11 12 12 14 15 17 18 20 22 19 17 11 4 2 3 3 4 7 5 4 5 4 5 9 8 14 10 5 4 5 7 9 15 17 13 10 6 6 7 6 26 27 17 9 19 23
10 9 10 9 11 12 14 14 15 16 16 12 13 8 4 2 3 2 3 4 4 6 1 3 7 7 10 4 4 5 7 9 7 13 18 14 10 8 9 13 10 14 23 16 11 9 25
9 8 8 8 8 9 10 10 11 13 13 9 7 9 4 2 3 1 3 4 2 2 3 2 6 5 7 4 5 5 5 7 7 13 18 14 10 12 12 5 11 17 20 13 17 14 21
8 7 7 7 6 7 7 7 8 10 13 8 5 6 4 1 1 3 1 1 1 1 3 6 3 4 5 5 4 3 4 5 4 6 11 10 8 6 8 8 9 17 17 13 10 15 17
7 7 6 6 5 5 5 5 6 6 10 10 5 4 4 2 1 2 3 1 2 3 2 1 2 2 4 3 2 3 3 2 4 4 7 5 5 5 5 5 4 11 11 13 13 14 16
Wind_Direction
30 27 24 22 19 16 13 13 13 14 18 20 19 19 16 15 13 22 49 58 66 84 88 79 85 98 91 67 28 345 343 340 341 335 294 277 270 267 257 262 259 250 259 260 262 258 264
29 26 22 20 18 15 12 13 13 15 18 20 20 16 15 19 20 45 62 61 90 106 83 77 77 73 80 62 356 350 346 344 347 337 315 282 267 306 285 261 253 275 271 264 258 256 256
28 25 22 19 17 15 13 15 12 13 17 19 18 16 18 19 26 40 71 72 84 121 37 71 124 69 59 22 6 357 352 351 349 344 304 296 278 273 311 263 267 278 272 266 256 254 243
28 25 22 19 16 14 12 12 13 16 16 16 14 15 19 20 35 47 75 122 72 76 61 77 75 62 80 27 2 1 355 351 354 345 285 290 257 254 257 274 278 267 266 267 265 269 231
26 24 21 18 15 13 11 12 15 15 17 18 13 13 17 19 29 48 68 92 130 72 55 59 35 62 47 353 11 358 359 350 344 2 42 36 225 280 234 265 270 237 262 270 269 243 252
25 23 20 17 14 12 11 11 13 13 15 15 13 12 13 23 21 9 178 90 69 42 355 25 26 116 17 347 350 358 357 343 355 350 184 28 203 255 18 335 283 318 299 291 281 262 288
24 23 19 16 14 12 10 8 12 13 13 16 12 10 9 31 21 12 131 202 206 46 53 62 53 60 354 356 338 3 354 343 350 36 28 34 71 25 337 316 294 288 280 277 278 281 278
23 21 19 16 13 11 9 10 12 11 10 10 9 9 4 353 19 28 71 67 50 107 83 52 38 29 13 348 0 11 3 21 2 25 1 156 53 358 328 318 317 297 283 279 290 281 268
22 20 18 15 12 10 10 10 11 12 14 15 11 10 8 25 13 38 65 45 298 195 103 41 38 20 7 334 28 9 7 343 360 10 14 33 23 341 331 318 332 321 298 288 293 311 284
21 18 17 14 12 13 13 13 11 13 19 21 20 16 19 28 60 4 53 353 150 190 180 10 8 24 355 338 25 16 5 351 10 353 355 42 349 344 334 333 339 313 325 313 295 292 275
19 18 16 13 11 14 15 14 12 15 27 23 24 25 29 49 5 37 323 31 148 246 247 354 12 320 353 34 329 8 10 360 16 349 344 8 327 335 337 336 325 307 310 289 283 269 269
18 16 15 12 12 14 14 13 12 13 26 39 31 24 31 22 36 359 39 134 229 233 47 9 347 348 357 5 10 355 5 18 298 318 343 343 298 316 347 332 317 320 312 284 254 250 259
16 17 15 12 11 13 13 11 10 10 14 37 35 26 39 30 340 344 136 228 226 50 344 351 341 339 343 352 353 3 359 34 28 354 344 341 31 9 6 341 334 337 344 321 246 190 248
15 14 14 13 12 13 12 10 9 7 5 347 294 19 25 15 351 128 238 213 61 25 7 335 332 330 5 6 347 349 356 15 32 8 327 344 320 12 332 337 312 318 341 328 305 311 312
13 13 12 15 14 13 12 9 7 7 6 8 33 359 14 355 8 15 262 54 42 15 340 332 316 336 2 2 335 341 359 12 26 17 2 320 302 320 305 325 331 338 342 312 263 257 261
13 12 12 14 16 14 13 9 6 7 7 22 58 5 12 356 22 335 62 97 94 27 327 332 351 360 336 351 345 338 342 44 359 358 353 319 307 294 325 316 180 320 328 334 339 286 299
13 12 12 13 16 15 14 11 6 6 12 37 44 66 350 3 26 55 72 77 91 30 4 351 340 315 339 349 327 327 328 49 6 340 336 313 257 285 310 336 316 327 349 333 289 258 296
13 12 11 12 16 16 15 13 8 5 15 42 45 52 349 14 53 47 58 40 33 10 18 11 339 2 350 331 318 309 328 332 355 341 328 334 295 291 305 295 180 343 346 332 293 290 294
11 12 12 13 16 16 15 15 11 9 18 20 63 40 3 20 73 74 94 86 54 17 24 15 28 357 345 332 318 320 327 347 339 330 319 325 286 314 308 164 239 343 347 357 316 254 348
10 12 12 12 14 17 17 17 16 11 18 65 80 52 27 38 51 89 95 45 36 49 63 356 336 347 340 331 310 294 319 329 334 325 318 309 283 285 287 302 300 294 10 25 12 9 324
9 13 13 11 14 18 18 19 20 18 20 72 33 64 6 37 37 64 72 42 27 22 14 16 355 355 341 326 326 350 327 332 350 7 13 356 307 336 308 284 279 40 34 31 37 22 18
8 12 15 11 14 19 20 22 22 22 37 61 82 60 75 78 63 64 63 26 22 5 341 15 348 342 334 334 333 320 326 330 28 352 6 348 325 319 300 282 101 58 19 13 33 29 21
6 9 13 10 14 20 22 24 24 28 41 60 45 73 314 52 51 55 39 24 12 345 112 3 341 329 345 340 320 311 297 311 355 330 354 344 328 316 295 319 223 36 2 346 36 35 15
1 6 10 9 13 19 23 25 27 30 44 62 46 9 26 91 71 54 19 17 2 2 332 350 6 347 343 321 295 275 25 88 301 355 350 334 326 292 296 307 70 25 17 351 35 41 26
351 0 4 7 11 16 20 25 28 30 42 48 36 39 29 111 96 83 15 17 343 358 22 353 359 341 325 305 337 351 17 3 13 357 356 346 341 319 312 31 84 17 8 2 53 35 15
340 351 358 1 4 10 14 22 27 29 33 42 40 39 50 125 80 33 11 12 347 353 21 358 359 351 331 358 16 5 31 347 359 360 4 15 4 14 9 64 44 360 355 339 315 15 358
330 340 349 355 0 4 14 17 20 23 24 40 38 31 46 63 111 315 21 359 329 333 288 339 352 355 345 19 36 11 28 358 3 10 4 19 14 19 25 33 55 4 10 358 29 345 349
314 329 337 345 350 356 10 12 8 17 20 32 33 26 30 34 234 199 223 303 335 265 354 3 240 20 18 32 6 18 345 17 345 29 358 18 348 22 20 18 23 0 27 29 352 346 354
293 313 322 332 334 343 353 358 360 22 16 23 26 357 349 244 356 261 236 245 329 326 305 35 22 339 33 355 11 294 331 301 334 15 2 32 12 335 29 23 360 16 17 10 357 347 345